Regional Weather Roundup
Issued by NWS

Home | Current Version | Previous Version | Graphics & Text | Print | Product List | Glossary On
Versions: 1 2 3 4 5 6 7 8 9 10 11 12 13 14 15 16 17 18 19 20 21 22 23 24 25 26 27 28 29 30 31 32 33 34 35 36 37 38 39 40 41 42 43 44 45 46 47 48 49 50
000
ASUS45 KPSR 290610
RWRAZ

ARIZONA REGIONAL HOURLY WEATHER ROUNDUP
NATIONAL WEATHER SERVICE PHOENIX AZ
1100 PM MST THU AUG 28 2014

NOTE: FAIR INDICATES FEW OR NO CLOUDS BELOW 12,000 FEET WITH NO
SIGNIFICANT WEATHER AND/OR OBSTRUCTIONS TO VISIBILITY.

AZZ001>003-036-290700-
NORTHWEST ARIZONA

CITY           SKY/WX    TMP DP  RH WIND       PRES   REMARKS
BULLHEAD CITY  CLEAR     90  36  14 CALM      29.80S
KINGMAN        CLEAR     71  33  24 CALM      30.03S
6HR MIN TEMP:  70; 6HR MAX TEMP:  95;

$$

AZZ004>008-015-016-018-290700-
NORTH CENTRAL ARIZONA

CITY           SKY/WX    TMP DP  RH WIND       PRES   REMARKS
GRAND CANYON     N/A    N/A N/A N/A MISG        N/A
WILLIAMS       CLEAR     54  41  62 S10       30.34F
PRESCOTT       CLEAR     63  48  58 S6        30.15S
6HR MIN TEMP:  63; 6HR MAX TEMP:  84;

FLAGSTAFF      CLEAR     51  42  71 CALM      30.32S
6HR MIN TEMP:  50; 6HR MAX TEMP:  75;

PAYSON         CLEAR     70  39  32 NE8       30.18S
PAGE           CLEAR     75  41  29 W3        30.10S
6HR MIN TEMP:  74; 6HR MAX TEMP:  88;

$$

AZZ009>014-017-290700-
NORTHEAST ARIZONA

CITY           SKY/WX    TMP DP  RH WIND       PRES   REMARKS
WINSLOW        CLEAR     63  51  65 W9        30.15S
6HR MIN TEMP:  62; 6HR MAX TEMP:  85;

SAINT JOHNS    CLEAR     63  48  58 CALM      30.19S
6HR MIN TEMP:  62; 6HR MAX TEMP:  81;

WINDOW ROCK    CLEAR     58  40  51 CALM      30.27S
6HR MIN TEMP:  56; 6HR MAX TEMP:  79;

SHOW LOW       CLEAR     55  45  67 CALM      30.27S
$$

AZZ023-290700-
GREATER PHOENIX AREA

CITY           SKY/WX    TMP DP  RH WIND       PRES   REMARKS
PHOENIX        CLEAR     97  45  16 W5        29.79F
6HR MIN TEMP:  96; 6HR MAX TEMP: 105;

BUCKEYE          N/A     82  59  44 NW3       29.81S
LUKE AFB       NOT AVBL
6HR MIN TEMP:  88; 6HR MAX TEMP: 104;

DEER VALLEY    CLEAR     88  49  25 E9        29.83S
6HR MIN TEMP:  87; 6HR MAX TEMP: 104;

SCOTTSDALE     CLEAR     94  46  19 N6        29.85S
6HR MIN TEMP:  91; 6HR MAX TEMP: 104;

MESA-GATEWAY   CLEAR     86  46  25 CALM      29.85S
$$

AZZ027-028-290700-
SOUTHWEST MARICOPA COUNTY AND PINAL COUNTY

CITY           SKY/WX    TMP DP  RH WIND       PRES   REMARKS
CASA GRANDE    CLEAR     82  45  26 CALM      29.84F
6HR MIN TEMP:  82; 6HR MAX TEMP: 100;

GILA BEND      CLEAR     88  48  25 S7        29.81F
$$

AZZ503-504-507>509-290700-
SOUTHEAST ARIZONA

CITY           SKY/WX    TMP DP  RH WIND       PRES   REMARKS
TUCSON         CLEAR     85  46  25 W5        29.96S
6HR MIN TEMP:  84; 6HR MAX TEMP:  98;

DAVIS-MONTHAN  CLEAR     82  48  30 W5        29.94F
6HR MIN TEMP:  82; 6HR MAX TEMP:  96;

NOGALES        CLEAR     67  54  63 CALM      30.05S
6HR MIN TEMP:  67; 6HR MAX TEMP:  89;

SIERRA VISTA   PTCLDY    73  46  38 W8        30.11S
DOUGLAS        CLEAR     67  55  65 N5        30.05F
6HR MIN TEMP:  67; 6HR MAX TEMP:  89;

SAFFORD        CLEAR     79  45  29 NW7       29.96R
6HR MIN TEMP:  79; 6HR MAX TEMP:  95;

$$

AZZ020-021-025-026-031-290700-
SOUTHWEST ARIZONA

CITY           SKY/WX    TMP DP  RH WIND       PRES   REMARKS
YUMA           CLEAR     93  43  17 CALM      29.75F
6HR MIN TEMP:  93; 6HR MAX TEMP: 111;

$$

CAZ031-033-041-043-047-048-061-290700-
SOUTHERN CALIFORNIA

CITY           SKY/WX    TMP DP  RH WIND       PRES   REMARKS
DOWNTOWN L.A.  CLEAR     73  54  51 CALM      29.90R
6HR MIN TEMP:  73; 6HR MAX TEMP:  87;

L.A. AIRPORT   CLEAR     72  55  55 SW9       29.90S
6HR MIN TEMP:  72; 6HR MAX TEMP:  82;

SAN DIEGO      CLEAR     74  66  76 NW6       29.93S
6HR MIN TEMP:  74; 6HR MAX TEMP:  83;

BURBANK        CLEAR     80  40  23 SE5       29.91S
6HR MIN TEMP:  80; 6HR MAX TEMP:  97;

ONTARIO        CLEAR     79  39  23 CALM      29.93S
6HR MIN TEMP:  78; 6HR MAX TEMP:  95;

RIVERSIDE      CLEAR     79  47  32 CALM      29.92F
6HR MIN TEMP:  79; 6HR MAX TEMP:  94;

PALM SPRINGS   CLEAR     94  48  20 CALM      29.81S
6HR MIN TEMP:  94; 6HR MAX TEMP: 112;

EL CENTRO NAS  CLEAR     89  50  26 W9        29.76S
6HR MIN TEMP:  89; 6HR MAX TEMP: 111;

IMPERIAL       CLEAR     86  55  34 W10       29.75S
6HR MIN TEMP:  85; 6HR MAX TEMP: 110;

BLYTHE         CLEAR     94  41  16 W7        29.77S
6HR MIN TEMP:  92; 6HR MAX TEMP: 107;

NEEDLES        CLEAR     93  34  12 W7        29.80S
6HR MIN TEMP:  92; 6HR MAX TEMP: 109;

$$

NVZ020-UTZ003-290700-
SOUTHERN NEVADA-UTAH

CITY           SKY/WX    TMP DP  RH WIND       PRES   REMARKS
LAS VEGAS      CLEAR     92  30  11 SW12      29.87S
6HR MIN TEMP:  92; 6HR MAX TEMP: 102;

SALT LAKE CITY CLEAR     68  43  40 S9        30.09S
6HR MIN TEMP:  67; 6HR MAX TEMP:  84;

$$

NMZ009-TXZ055-290700-
NEW MEXICO-WEST TEXAS

CITY           SKY/WX    TMP DP  RH WIND       PRES   REMARKS
ALBUQUERQUE    CLEAR     73  42  32 NE5       30.15S
6HR MIN TEMP:  73; 6HR MAX TEMP:  82;

EL PASO        CLEAR     80  48  32 CALM      30.01S
6HR MIN TEMP:  79; 6HR MAX TEMP:  92;

$$


........................KEY........................
SKY/WX - SKY CONDITION/WEATHER
TMP    - TEMPERATURE IN FAHRENHEIT
DP     - DEW POINT IN FAHRENHEIT
RH     - RELATIVE HUMIDITY IN PERCENT
WIND   - DIRECTION AND SPEED IN MILES PER HOUR (MPH)
VRB    - VARIABLE WIND DIRECTION
PRES   - MEAN SEA LEVEL PRESSURE IN INCHES OF MERCURY
         F - FALLING PRESSURE   R - RISING PRESSURE
         S - STEADY PRESSURE
VSB    - VISIBILITY IN MILES
HX     - HEAT INDEX IN FAHRENHEIT
WCI    - WIND CHILL INDEX IN FAHRENHEIT
TC     - TEMPERATURE IN CELSIUS WHICH IS ALSO KNOWN AS
         TEMPERATURE IN CENTIGRADE
AFB    - AIR FORCE BASE
         LUKE AFB IS LUKE AIR FORCE BASE
         DAVIS-MONTHAN IS DAVIS-MONTHAN AIR FORCE BASE
NAS    - NAVAL AIR STATION
         EL CENTRO NAS IS EL CENTRO NAVAL AIR STATION
N/A    - NOT AVAILABLE



USA.gov is the U.S. government's official web portal to all federal, state and local government web resources and services.